Location: ????????
(60.5616°N, 46.8254°E)
Time: 11:54:28
(UTC+00:00)

Cosmos 2278 Rocket - Pass Details

Date: 18 February 2020
Orbit: 840 x 846 km, 71.0° (Epoch: 08 April)

Event Time Altitude Azimuth Distance (km) Brightness Sun altitude
Rises 18:36:02 0° 282° (WNW) 3,403 6.1 -33.8°
Reaches altitude 10° 18:38:48 10° 293° (WNW) 2,469 5.3 -34.1°
Maximum altitude 18:43:43 29° 354° (N) 1,496 3.8 -34.5°
Enters shadow 18:44:35 28° 10° (N) 1,535 3.8 -34.6°
